HDGA4: War Eagle Creek At Hindsville, AR

                                SHEF ID:       HDGA4     War Eagle Crk nr Hindsville,AR
STATION TYPE:

STAGE RIV-FLOW WTR-TEMP CONDUCT BAT-LOAD
ft cfs F umho/cm volt
Ccp-Rev Ccp-Rev Ccp-Rev Ccp-Rev Ccp-Rev
(America/Chicago)
11/27 00:00 1.77 241 52.95 ---- 10.89
11/27 01:00 1.76 238 52.77 ---- 10.88
11/27 02:00 1.75 236 52.61 ---- 10.88
11/27 03:00 1.74 234 52.43 ---- 10.88
11/27 04:00 1.73 231 52.25 ---- 10.86
11/27 05:00 1.72 229 52.07 ---- 10.86
11/27 06:00 1.71 227 51.91 ---- 10.86
11/27 07:00 1.70 225 51.71 ---- 10.86
11/27 08:00 1.69 223 51.48 ---- 10.86
11/27 09:00 1.68 220 51.42 ---- 10.88
11/27 10:00 1.67 218 51.35 ---- 11.16
11/27 11:00 1.66 216 51.24 ---- 11.03
11/27 12:00 1.65 214 51.24 ---- 11.21
11/27 13:00 1.64 212 51.21 ---- 11.12
11/27 14:00 1.63 210 51.64 ---- 11.10
11/27 15:00 1.62 207 52.05 ---- 11.06
11/27 16:00 1.61 205 52.38 ---- 11.02
11/27 17:00 1.60 203 52.29 ---- 10.97
11/27 18:00 1.59 201 52.30 ---- 10.93
11/27 19:00 1.59 201 52.23 ---- 10.89
11/27 20:00 1.58 199 51.89 ---- 10.87
11/27 21:00 1.57 197 51.66 ---- 10.86
11/27 22:00 1.56 195 51.39 ---- 10.85
11/27 23:00 1.55 193 51.24 ---- 10.85
Data processed at Fri 28Nov2025 05:13 GMT

NOTICE: If you are parsing this page

Please convert to using our Data API. Starting January 1st, 2026 we will be migrating to: https://water.usace.army.mil with modern pages rendered in JavaScript. You will no longer be able to scrape this page! CWMSDataAPI (CDA)

Timeseries IDs (TSIDs)

TSIDs used from left to right in the data table
HIND.Stage.Inst.1Hour.0.Ccp-Rev
HIND.Flow.Inst.1Hour.0.Ccp-Rev
HIND.Temp-Water.Inst.1Hour.0.Ccp-Rev
HIND.Cond.Inst.1Hour.0.Ccp-Rev
HIND.Volt-Battery Load.Inst.1Hour.0.Ccp-Rev

                            

All information presented herein is the property of the government of the United States of America and may be revised or deleted at any time without prior notice. Dissemination of this information without the expressed written consent of the Public Affairs Office, Tulsa District U.S. Army Corps of Engineers is strictly prohibited. These data are gathered electronically and, as presented, have NOT undergone any form of quality control. These data are NOT guaranteed to be valid or correct.